Regional Weather Roundup
Issued by NWS

Home | Current Version | Previous Version | Graphics & Text | Print | Product List | Glossary On
Versions: 1 2 3 4 5 6 7 8 9 10 11 12 13 14 15 16 17 18 19 20 21 22 23 24 25 26 27 28 29 30 31 32 33 34 35 36 37 38 39 40 41 42 43 44 45 46 47 48 49 50
000
ASUS43 KLSX 280707
RWRMO

WEATHER SUMMARY FOR MISSOURI
NATIONAL WEATHER SERVICE SPRINGFIELD MO
100 AM CST SUN DEC 28 2014

NOTE: "FAIR" INDICATES FEW OR NO CLOUDS BELOW 12,000 FEET WITH NO
       SIGNIFICANT WEATHER AND/OR OBSTRUCTIONS TO VISIBILITY.
       CURRENT SKY AND/OR WEATHER CONDITIONS ARE NOT AVAILABLE FOR
       CHILLICOTHE AND FARMINGTON.

MOZ001>031-035>038-043-044-053-054-280800-
...NORTHERN AND WESTERN MISSOURI...

CITY           SKY/WX    TMP DP  RH WIND       PRES   REMARKS
KANSAS CTY INT CLEAR     21  18  88 SW6       30.25F WCI  13
KANSAS C DTWN  CLEAR     26  18  71 SW3       30.27F
LEE`S SUMMIT   CLEAR     22  18  85 W3        30.26F
ST JOSEPH      CLEAR     18  15  88 W5        30.26F WCI  11
CHILLICOTHE      N/A     22  18  85 CALM      30.26F
KIRKSVILLE     CLOUDY    26  21  81 W5        30.23F WCI  20

$$
MOZ066>068-077>081-088>096-101>105-280800-
...SOUTHWEST MISSOURI...

CITY           SKY/WX    TMP DP  RH WIND       PRES   REMARKS
SPRINGFIELD    CLOUDY    27  23  85 NW6       30.23R WCI  20
JOPLIN         PTCLDY    24  21  88 CALM      30.28R

$$
MOZ032>034-039>042-045>050-055>058-069>072-280800-
...CENTRAL MISSOURI...

CITY           SKY/WX    TMP DP  RH WIND       PRES   REMARKS
COLUMBIA       CLOUDY    28  23  81 N9        30.23F WCI  19
JEFFERSON CITY CLOUDY    30  23  75 W7        30.25F WCI  23
ROLLA          CLOUDY    29  24  82 NW9       30.19S WCI  20
SEDALIA        CLEAR     26  21  81 NW5       30.25F WCI  20
WHITEMAN AFB   CLEAR     22  19  87 CALM      30.27S
WARRENSBURG    CLEAR     21  19  93 W5        30.26F WCI  15
OSAGE BEACH    CLOUDY    30  21  69 NW5       30.23F WCI  25

$$
MOZ051-052-059>065-280800-
...EAST CENTRAL MISSOURI...

CITY           SKY/WX    TMP DP  RH WIND       PRES   REMARKS
ST LOUIS INTL  CLOUDY    34  26  72 NW7       30.20F WCI  28
SPIRIT OF STL  CLOUDY    32  26  78 NW10      30.21F WCI  24
ST CHARLES     CLOUDY    33  26  75 NW13      30.21F WCI  24

$$
MOZ072>076-082>087-097>100-106>115-280800-
...SOUTH CENTRAL AND SOUTHEAST MISSOURI...

CITY           SKY/WX    TMP DP  RH WIND       PRES   REMARKS
CAPE GIRARDEAU CLOUDY    37  33  85 N14       30.18R WCI  28
FARMINGTON     CLOUDY    32  28  86 SE10G17   30.19S WCI  24
POPLAR BLUFF   CLOUDY    39  34  82 N8        30.17F
WEST PLAINS    CLOUDY    32  27  81 N7        30.19F WCI  26

$$



USA.gov is the U.S. government's official web portal to all federal, state and local government web resources and services.